Location: Gloden
(48.4833°N, 15.3167°E)
Time: 06:35:01
(UTC+00:00)

Okean O Rocket - Pass Details

Date: 15 December 2019
Orbit: 624 x 644 km, 98.2° (Epoch: 23 January)

Event Time Altitude Azimuth Distance (km) Brightness Sun altitude
Rises 06:03:35 0° 1° (N) 2,937 4.8 -6.5°
Reaches altitude 10° 06:06:19 10° 343° (NNW) 2,027 3.8 -6.1°
Maximum altitude 06:09:22 19° 300° (WNW) 1,533 3.0 -5.6°
Drops below altitude 10° 06:12:25 10° 256° (WSW) 2,026 3.8 -5.2°
Sets 06:15:09 0° 238° (WSW) 2,934 4.7 -4.8°
